Location: Borz?cin
(51.1714°N, 19.6030°E)
Time: 08:18:23
(UTC+00:00)

Cosmos 1328 Rocket - Pass Details

Date: 19 May 2025
Orbit: 596 x 618 km, 82.5° (Epoch: 16 June)

Event Time Altitude Azimuth Distance (km) Brightness Sun altitude
Exits shadow 23:23:13 39° 206° (SSW) 901 3.9 -18.2°
Maximum altitude 23:24:43 74° 281° (W) 632 3.5 -18.1°
Drops below altitude 10° 23:29:04 10° 7° (N) 1,963 7.4 -18.0°
Sets 23:31:18 0° 10° (N) 2,876 8.7 -17.9°
